全部
Collie Airport (Collie Western Australia) YCOI 天气
There is no TAF data available at YCOI. Showing TAF data for YBUN (29 mi W).
BUY终端机场天气预报(YCOI无数据)
| Date | Time (AWST) | Flight Rules | Wind Dir. | Speed | Type | Height AGL (ft) | Visibility | Remarks | ||||||
|---|---|---|---|---|---|---|---|---|---|---|---|---|---|---|
| 06-五月 | 11:00 | VFR | 120° | 8 kt | Clouds and Visibility are OK | >= 6 miles | ||||||||
| 06-五月 | 10:00 | VFR | 120° | 8 kt | Clouds and Visibility are OK | >= 6 miles | ||||||||
| 06-五月 | 09:00 | VFR | 120° | 8 kt | Clouds and Visibility are OK | >= 6 miles | ||||||||
| 06-五月 | 08:00 | VFR | 120° | 8 kt | Clouds and Visibility are OK | >= 6 miles | ||||||||
| 06-五月 | 07:00 | VFR | 120° | 8 kt | Clouds and Visibility are OK | >= 6 miles | ||||||||
| 06-五月 | 06:00 | VFR | 120° | 8 kt | Clouds and Visibility are OK | >= 6 miles | ||||||||
| 06-五月 | 05:00 | VFR | 120° | 8 kt | Clouds and Visibility are OK | >= 6 miles | ||||||||
| 06-五月 | 04:00 | VFR | 120° | 8 kt | Clouds and Visibility are OK | >= 6 miles | ||||||||
There is no METAR data available at YCOI. Showing METAR data for YBUN (29 mi W).
BUY近期METAR历史数据(YCOI无数据)
| Date | Time (AWST) | Flight Rules | Wind Dir. | Speed | Type | Height AGL (ft) | Visibility | Temp (°C) | Temp (°F) | Dew Point (°C) | Dew Point (°F) | Rel. Humid. | Pressure | Density Altitude | Remarks |
|---|---|---|---|---|---|---|---|---|---|---|---|---|---|---|---|
| 06-五月 | 04:00 | VFR | 140° | 4 kt | 10000 meters | 12° | 53° | 9° | 48° | 82% | 1028 mb | -745 ft | |||
| 06-五月 | 03:00 | VFR | 120° | 4 kt | 10000 meters | 12° | 53° | 10° | 50° | 88% | 1028 mb | -745 ft | |||
| 06-五月 | 02:00 | VFR | 130° | 5 kt | 10000 meters | 12° | 53° | 9° | 48° | 82% | 1028 mb | -745 ft | |||
| 06-五月 | 01:00 | VFR | 130° | 6 kt | 10000 meters | 13° | 55° | 9° | 48° | 77% | 1028 mb | -625 ft | |||
| 06-五月 | 00:00 | VFR | 120° | 7 kt | 10000 meters | 13° | 55° | 9° | 48° | 77% | 1028 mb | -625 ft | |||
| 05-五月 | 23:00 | VFR | 130° | 7 kt | 10000 meters | 14° | 57° | 9° | 48° | 72% | 1028 mb | -505 ft | |||
| 05-五月 | 22:00 | VFR | 140° | 5 kt | 10000 meters | 14° | 57° | 9° | 48° | 72% | 1028 mb | -505 ft | |||
| 05-五月 | 21:00 | VFR | 150° | 4 kt | 10000 meters | 12° | 53° | 9° | 48° | 82% | 1028 mb | -745 ft | |||
| 05-五月 | 20:00 | VFR | 160° | 5 kt | 10000 meters | 13° | 55° | 10° | 50° | 82% | 1027 mb | -595 ft | |||
| 05-五月 | 19:00 | VFR | 160° | 4 kt | 10000 meters | 14° | 57° | 10° | 50° | 77% | 1027 mb | -475 ft | |||
| 05-五月 | 18:00 | VFR | 200° | 3 kt | 10000 meters | 14° | 57° | 9° | 48° | 72% | 1026 mb | -446 ft | |||
| 05-五月 | 17:00 | VFR | 190° | 4 kt | 10000 meters | 19° | 66° | 10° | 50° | 56% | 1026 mb | 154 ft | |||
| 05-五月 | 16:00 | VFR | 190° | 4 kt | 10000 meters | 21° | 69° | 9° | 48° | 46% | 1025 mb | 424 ft | |||
| 05-五月 | 15:00 | VFR | 160° | 5 kt | 10000 meters | 21° | 69° | 10° | 50° | 49% | 1025 mb | 424 ft | |||
| 05-五月 | 14:00 | VFR | 110° | 3 kt | 10000 meters | 20° | 68° | 11° | 51° | 56% | 1026 mb | 274 ft | |||
| 05-五月 | 13:00 | VFR | 190° | 3 kt | 10000 meters | 20° | 68° | 10° | 50° | 53% | 1026 mb | 274 ft | |||
| 05-五月 | 12:00 | VFR | 150° | 3 kt | 10000 meters | 19° | 66° | 10° | 50° | 56% | 1027 mb | 125 ft | |||
| 05-五月 | 11:00 | VFR | 50° | 3 kt | 10000 meters | 18° | 64° | 11° | 51° | 64% | 1027 mb | 5 ft | |||
| 05-五月 | 10:00 | VFR | 80° | 5 kt | 10000 meters | 17° | 62° | 11° | 51° | 68% | 1027 mb | -115 ft | |||
| 05-五月 | 09:00 | VFR | 100° | 3 kt | 10000 meters | 14° | 57° | 11° | 51° | 82% | 1028 mb | -505 ft | |||
| 05-五月 | 08:01 | VFR | 150° | 2 kt | 10000 meters |
9° | 48° | 9° | 48° | 100% | 1027 mb | -1,075 ft | |||
| 05-五月 | 07:00 | BCAT1 | 160° | 2 kt | 700 meters |
5° | 41° | 5° | 41° | 100% | 1027 mb | -1,555 ft | |||
| 05-五月 | 06:00 | IFR | 150° | 2 kt | 2300 meters |
6° | 42° | 6° | 42° | 100% | 1026 mb | -1,406 ft | |||
| 05-五月 | 05:02 | VFR | 150° | 4 kt | 10000 meters | 6° | 42° | 6° | 42° | 100% | 1026 mb | -1,406 ft |
登录
| 您的浏览器不支持. 升级您的浏览器 |
